Dobrodošli na spletni strani vremenske postaje Senovo. Vse informacije so informativnega značaja, saj vremenska postaja ni del državne mreže meteoroloških postaj. AKTUALNIH OBVESTIL NI.


Posebna pozornost v zvezi z vremenskimi dogajanji ni potrebna.    Posebna pozornost v zvezi z vremenskimi dogajanji ni potrebna.

Pogled proti Armezu več informacij Pogled proti Armezu


Lisca več informacij Lisca


Radar strel več informacij blitzortung!


Radar padavin več informacij rain snow radar


Obiščite še:

Template documentation
and downloads

And another site



Weather Underground, zgodovina - Tekstovno

Dnevni povzetek za Januar 4, 2018 Enote:  Metrično    Angleško   Obe
« Predhodni Dan
Naslednji Dan »
Dnevni Tedenski Mesečni Letni Po meri
  Višja: Nižja: Povprečje:
Temperatura: -17.8 °C -18.7 °C -17.1 °C
Točka rosišča: -17.8 °C -19.2 °C -17.5 °C
Vlažnost: Humidity % 90 % 95 %
Hitrost vetra: 0 km/h 0 km/h 0.5 km/h
Sunki vetra: 0 km/h - -
Veter:- - South
Zračni tlak: 0 hPa 33924.3 hPa -
Padavine: 7.62 mm    
Historical Graphs
 
 
Tabelarni podarki za Januar 4, 2018
Čas Temperatura Točka rosišča Zračni tlak Veter Hitrost vetra Sunki vetra Vlažnost Intenziteta padavin (urna)
-17.8 °C -17.8 °C 0 hPa Calm     Humidity % 0 mm
00:00 -17.9 °C -18.7 °C 34029.3 hPa Calm     90 % 0 mm
00:05 -18 °C -18.8 °C 34029.3 hPa Calm     90 % 0 mm
00:09 -18 °C -18.8 °C 34029.3 hPa Calm     90 % 0 mm
00:14 -18 °C -18.8 °C 34029.3 hPa Calm     90 % 0 mm
00:15 -18 °C -18.8 °C 34029.3 hPa Calm     90 % 0 mm
00:20 -17.9 °C -18.7 °C 34029.3 hPa Calm     91 % 0 mm
00:22 -17.9 °C -18.7 °C 34029.3 hPa Calm     91 % 0 mm
00:27 -17.9 °C -18.7 °C 34029.3 hPa Calm     91 % 0 mm
00:32 -17.9 °C -18.7 °C 34029.3 hPa Calm     91 % 0 mm
00:34 -17.9 °C -18.7 °C 34029.3 hPa Calm     91 % 0 mm
00:39 -17.9 °C -18.7 °C 34029.3 hPa Calm     91 % 0 mm
00:40 -17.9 °C -18.7 °C 34029.3 hPa Calm     91 % 0 mm
00:45 -17.9 °C -18.7 °C 34029.3 hPa Calm     91 % 0 mm
00:46 -17.9 °C -18.7 °C 34029.3 hPa Calm     91 % 0 mm
00:51 -17.9 °C -18.7 °C 34029.3 hPa Calm     91 % 0 mm
00:54 -17.9 °C -18.7 °C 34029.3 hPa Calm     91 % 0 mm
00:59 -17.9 °C -18.5 °C 34029.3 hPa Calm     92 % 0 mm
01:00 -17.9 °C -18.5 °C 34029.3 hPa Calm     92 % 0 mm
01:06 -17.9 °C -18.5 °C 34029.3 hPa Calm     92 % 0 mm
01:11 -17.8 °C -18.4 °C 34029.3 hPa Calm     92 % 0 mm
01:16 -17.8 °C -18.4 °C 34063.2 hPa Calm     92 % 0 mm
01:19 -17.8 °C -18.4 °C 34063.2 hPa Calm     92 % 0 mm
01:24 -17.8 °C -18.4 °C 34063.2 hPa Calm     92 % 0 mm
01:29 -17.8 °C -18.4 °C 34029.3 hPa Calm     92 % 0 mm
01:30 -17.8 °C -18.4 °C 34029.3 hPa Calm     92 % 0 mm
01:32 -17.8 °C -18.4 °C 34029.3 hPa Calm     92 % 0 mm
01:35 -17.8 °C -18.4 °C 34029.3 hPa NW 0.3 km/h 5.1 km/h 92 % 0 mm
01:43 -17.8 °C -18.3 °C 34063.2 hPa NW 0.5 km/h 5.1 km/h 93 % 0 mm
01:45 -17.8 °C -18.3 °C 34063.2 hPa NW 0.5 km/h 5.1 km/h 93 % 0 mm
01:48 -17.8 °C -18.3 °C 34063.2 hPa Calm   6.4 km/h 93 % 0 mm
01:53 -17.8 °C -18.3 °C 34063.2 hPa NW 0.5 km/h 6.4 km/h 93 % 0 mm
01:56 -17.8 °C -18.3 °C 34063.2 hPa NW 0.5 km/h 6.4 km/h 93 % 0 mm
02:01 -17.7 °C -18.3 °C 34063.2 hPa Calm     93 % 0 mm
02:02 -17.7 °C -18.3 °C 34063.2 hPa Calm     93 % 0 mm
02:07 -17.8 °C -18.3 °C 34063.2 hPa Calm     93 % 0 mm
02:08 -17.8 °C -18.3 °C 34063.2 hPa Calm     93 % 0 mm
02:13 -17.8 °C -18.3 °C 34063.2 hPa Calm     93 % 0 mm
02:19 -17.8 °C -18.4 °C 34063.2 hPa Calm     93 % 0 mm
02:20 -17.8 °C -18.4 °C 34063.2 hPa Calm     93 % 0 mm
02:25 -17.9 °C -18.4 °C 34063.2 hPa Calm     93 % 0 mm
02:30 -17.9 °C -18.4 °C 34029.3 hPa Calm     93 % 0 mm
02:34 -17.9 °C -18.5 °C 34029.3 hPa Calm     93 % 0 mm
02:35 -17.9 °C -18.5 °C 34029.3 hPa Calm     93 % 0 mm
02:39 -17.9 °C -18.5 °C 34029.3 hPa Calm     93 % 0 mm
02:41 -17.9 °C -18.5 °C 34029.3 hPa Calm     93 % 0 mm
02:50 -18.1 °C -18.6 °C 34029.3 hPa Calm     93 % 0 mm
02:51 -18.1 °C -18.6 °C 34029.3 hPa Calm     93 % 0 mm
02:56 -18.1 °C -18.6 °C 34029.3 hPa Calm     93 % 0 mm
03:01 -18.1 °C -18.6 °C 34029.3 hPa Calm     93 % 0 mm
03:02 -18.1 °C -18.6 °C 34029.3 hPa Calm     93 % 0 mm
03:07 -18.1 °C -18.6 °C 34029.3 hPa Calm     93 % 0 mm
03:10 -18.1 °C -18.7 °C 34029.3 hPa Calm     93 % 0 mm
03:17 -18.2 °C -18.7 °C 34029.3 hPa Calm     93 % 0 mm
03:20 -18.2 °C -18.8 °C 34029.3 hPa Calm     93 % 0 mm
03:25 -18.2 °C -18.8 °C 34029.3 hPa Calm   3.4 km/h 93 % 0 mm
03:30 -18.2 °C -18.8 °C 34029.3 hPa Calm   3.4 km/h 93 % 0 mm
03:35 -18.3 °C -18.8 °C 34029.3 hPa Calm     93 % 0 mm
03:40 -18.3 °C -18.8 °C 34029.3 hPa Calm     94 % 0 mm
03:42 -18.3 °C -18.8 °C 34029.3 hPa Calm     94 % 0 mm
03:47 -18.3 °C -18.8 °C 34029.3 hPa Calm     94 % 0 mm
03:48 -18.3 °C -18.8 °C 34029.3 hPa Calm     94 % 0 mm
03:53 -18.3 °C -18.8 °C 34029.3 hPa Calm     94 % 0 mm
03:54 -18.3 °C -18.8 °C 34029.3 hPa Calm     94 % 0 mm
03:59 -18.4 °C -18.8 °C 34029.3 hPa Calm     94 % 0 mm
04:02 -18.4 °C -18.8 °C 34029.3 hPa Calm     94 % 0 mm
04:07 -18.4 °C -18.8 °C 34029.3 hPa Calm     94 % 0 mm
04:12 -18.4 °C -18.9 °C 34029.3 hPa Calm     94 % 0 mm
04:17 -18.4 °C -18.9 °C 34029.3 hPa Calm     94 % 0 mm
04:18 -18.4 °C -18.9 °C 34029.3 hPa Calm     94 % 0 mm
04:23 -18.4 °C -18.9 °C 34029.3 hPa Calm     94 % 0 mm
04:25 -18.4 °C -18.9 °C 34029.3 hPa Calm     94 % 0 mm
04:30 -18.5 °C -19 °C 33992.1 hPa Calm     94 % 0 mm
04:31 -18.5 °C -19 °C 33992.1 hPa Calm     94 % 0 mm
04:32 -18.5 °C -19 °C 33992.1 hPa Calm     94 % 0 mm
04:36 -18.5 °C -19 °C 33992.1 hPa Calm     94 % 0 mm
04:37 -18.5 °C -19 °C 33992.1 hPa Calm     94 % 0 mm
04:44 -18.6 °C -19 °C 34029.3 hPa Calm     94 % 0 mm
04:49 -18.6 °C -19 °C 34029.3 hPa Calm     94 % 0 mm
04:51 -18.6 °C -19 °C 34029.3 hPa Calm     94 % 0 mm
04:52 -18.6 °C -19 °C 34029.3 hPa Calm     94 % 0 mm
04:57 -18.6 °C -19 °C 33992.1 hPa Calm     94 % 0 mm
05:01 -18.6 °C -19 °C 33992.1 hPa Calm     94 % 0 mm
05:07 -18.6 °C -19.1 °C 33992.1 hPa Calm     94 % 0 mm
05:10 -18.6 °C -19.1 °C 33992.1 hPa Calm     94 % 0 mm
05:14 -18.6 °C -19.1 °C 33992.1 hPa Calm     94 % 0 mm
05:15 -18.6 °C -19.1 °C 33992.1 hPa Calm     94 % 0 mm
05:16 -18.6 °C -19.1 °C 33992.1 hPa Calm     94 % 0 mm
05:17 -18.6 °C -19.1 °C 33992.1 hPa Calm     94 % 0 mm
05:18 -18.6 °C -19.1 °C 33992.1 hPa Calm     94 % 0 mm
05:20 -18.6 °C -19.1 °C 33992.1 hPa Calm     94 % 0 mm
05:22 -18.6 °C -19.1 °C 33992.1 hPa Calm     94 % 0 mm
05:28 -18.6 °C -19.1 °C 33992.1 hPa Calm     94 % 0 mm
05:32 -18.7 °C -19.1 °C 33992.1 hPa Calm     94 % 0 mm
05:37 -18.7 °C -19.1 °C 33992.1 hPa Calm     94 % 0 mm
05:39 -18.7 °C -19.1 °C 33992.1 hPa Calm     94 % 0 mm
05:42 -18.7 °C -19.1 °C 33992.1 hPa Calm     94 % 0 mm
05:44 -18.7 °C -19.1 °C 34029.3 hPa Calm     94 % 0 mm
05:47 -18.7 °C -19.1 °C 34029.3 hPa Calm     94 % 0 mm
05:52 -18.7 °C -19.1 °C 34029.3 hPa Calm     94 % 0 mm
05:53 -18.7 °C -19.1 °C 34029.3 hPa Calm     94 % 0 mm
05:54 -18.7 °C -19.1 °C 34029.3 hPa Calm     94 % 0 mm
06:04 -18.7 °C -19.1 °C 34029.3 hPa SW 2.6 km/h 12.2 km/h 94 % 0 mm
06:06 -18.7 °C -19.1 °C 34029.3 hPa SW 2.1 km/h 12.2 km/h 94 % 0 mm
06:11 -18.7 °C -19.1 °C 34029.3 hPa WSW 2.3 km/h 6.9 km/h 94 % 0 mm
06:13 -18.7 °C -19.1 °C 34029.3 hPa WSW 2.1 km/h 6.9 km/h 94 % 0 mm
06:16 -18.7 °C -19.1 °C 34029.3 hPa WSW 2.1 km/h 6.9 km/h 94 % 0 mm
06:19 -18.7 °C -19.1 °C 34029.3 hPa WSW 1.8 km/h 5.6 km/h 94 % 0 mm
06:20 -18.7 °C -19.1 °C 34029.3 hPa WSW 1.3 km/h 4.2 km/h 94 % 0 mm
06:25 -18.7 °C -19.1 °C 34029.3 hPa SSW 0.8 km/h 7.6 km/h 94 % 0 mm
06:27 -18.7 °C -19.1 °C 34063.2 hPa SSW 0.5 km/h 7.6 km/h 94 % 0 mm
06:29 -18.7 °C -19.1 °C 34063.2 hPa SSW 0.8 km/h 7.6 km/h 94 % 0 mm
06:31 -18.7 °C -19.1 °C 34063.2 hPa SSW 0.8 km/h 6.9 km/h 94 % 0 mm
06:36 -18.7 °C -19.1 °C 34063.2 hPa SSW 0.5 km/h 5.1 km/h 94 % 0 mm
06:37 -18.7 °C -19.1 °C 34063.2 hPa SSW 0.5 km/h 5.1 km/h 94 % 0 mm
06:40 -18.7 °C -19.1 °C 34063.2 hPa SSW 0.5 km/h 5.1 km/h 94 % 0 mm
06:42 -18.7 °C -19.1 °C 34063.2 hPa SSW 0.5 km/h 5.1 km/h 94 % 0 mm
06:47 -18.7 °C -19.1 °C 34063.2 hPa SSW 0.3 km/h 4.2 km/h 94 % 0 mm
06:50 -18.7 °C -19.1 °C 34063.2 hPa SSW 0.3 km/h 4.2 km/h 94 % 0 mm
06:53 -18.7 °C -19.1 °C 34063.2 hPa Calm   3.4 km/h 94 % 0 mm
06:58 -18.7 °C -19.2 °C 34097 hPa Calm     94 % 0 mm
06:59 -18.7 °C -19.2 °C 34097 hPa Calm     94 % 0 mm
07:01 -18.7 °C -19.2 °C 34097 hPa Calm     94 % 0 mm
07:06 -18.7 °C -19.1 °C 34097 hPa Calm     94 % 0 mm
07:11 -18.7 °C -19.2 °C 34097 hPa Calm     94 % 0 mm
07:12 -18.7 °C -19.2 °C 34097 hPa Calm     94 % 0 mm
07:17 -18.7 °C -19.2 °C 34097 hPa Calm     94 % 0 mm
07:23 -18.7 °C -19.1 °C 34097 hPa Calm     95 % 0 mm
07:27 -18.7 °C -19.1 °C 34097 hPa Calm     95 % 0 mm
07:32 -18.7 °C -19.1 °C 34097 hPa Calm     95 % 0 mm
07:33 -18.7 °C -19.1 °C 34097 hPa Calm     95 % 0 mm
07:34 -18.7 °C -19.1 °C 34097 hPa Calm     95 % 0 mm
07:39 -18.7 °C -19.1 °C 34097 hPa Calm     95 % 0 mm
07:43 -18.7 °C -19.1 °C 34097 hPa SW 0.3 km/h 5.6 km/h 95 % 0 mm
07:44 -18.7 °C -19.1 °C 34097 hPa SW 1.3 km/h 7.6 km/h 95 % 0 mm
07:45 -18.7 °C -19.1 °C 34097 hPa SW 1.8 km/h 7.6 km/h 95 % 0 mm
07:46 -18.7 °C -19.1 °C 34097 hPa SW 2.1 km/h 7.6 km/h 95 % 0 mm
07:47 -18.6 °C -19 °C 34097 hPa SW 2.3 km/h 7.6 km/h 95 % 0 mm
07:51 -18.6 °C -19 °C 34097 hPa SW 2.3 km/h 7.6 km/h 95 % 0 mm
07:56 -18.6 °C -19 °C 34097 hPa North 0.3 km/h   95 % 0 mm
07:57 -18.6 °C -19 °C 34097 hPa Calm     95 % 0 mm
08:02 -18.6 °C -19 °C 34097 hPa Calm     95 % 0 mm
08:03 -18.6 °C -19 °C 34097 hPa Calm     95 % 0 mm
08:09 -18.6 °C -19 °C 34097 hPa Calm     95 % 0 mm
08:13 -18.6 °C -19 °C 34097 hPa Calm     95 % 0 mm
08:17 -18.6 °C -18.9 °C 34097 hPa Calm     95 % 0 mm
08:18 -18.6 °C -18.9 °C 34097 hPa Calm     95 % 0 mm
08:23 -18.6 °C -18.9 °C 34097 hPa Calm     95 % 0 mm
08:24 -18.6 °C -18.9 °C 34097 hPa Calm     95 % 0 mm
08:29 -18.6 °C -18.9 °C 34097 hPa Calm     95 % 0 mm
08:31 -18.6 °C -18.9 °C 34097 hPa Calm     95 % 0 mm
08:35 -18.5 °C -18.9 °C 34097 hPa Calm     95 % 0 mm
08:36 -18.5 °C -18.9 °C 34097 hPa Calm     95 % 0 mm
08:37 -18.5 °C -18.9 °C 34097 hPa Calm     95 % 0 mm
08:39 -18.5 °C -18.9 °C 34097 hPa Calm     95 % 0 mm
08:42 -18.5 °C -18.9 °C 34097 hPa Calm     95 % 0 mm
08:47 -18.4 °C -18.8 °C 34097 hPa Calm     95 % 0 mm
08:48 -18.4 °C -18.8 °C 34097 hPa Calm     95 % 0 mm
08:49 -18.4 °C -18.8 °C 34097 hPa Calm     95 % 0 mm
08:54 -18.4 °C -18.8 °C 34097 hPa Calm     95 % 0 mm
08:55 -18.4 °C -18.8 °C 34097 hPa Calm     95 % 0 mm
09:01 -18.3 °C -18.7 °C 34097 hPa Calm     95 % 0 mm
09:04 -18.3 °C -18.7 °C 34097 hPa Calm     95 % 0 mm
09:05 -18.3 °C -18.7 °C 34097 hPa Calm     95 % 0 mm
09:09 -18.3 °C -18.7 °C 34097 hPa Calm     95 % 0 mm
09:11 -18.3 °C -18.7 °C 34097 hPa Calm     95 % 0 mm
09:13 -18.2 °C -18.6 °C 34097 hPa Calm     95 % 0 mm
09:14 -18.2 °C -18.6 °C 34097 hPa SSW 0.3 km/h 4.2 km/h 95 % 0 mm
09:18 -18.2 °C -18.6 °C 34097 hPa SSW 0.5 km/h 4.2 km/h 95 % 0 mm
09:20 -18.2 °C -18.6 °C 34097 hPa SSW 0.5 km/h 4.2 km/h 95 % 0 mm
09:25 -18.1 °C -18.4 °C 34097 hPa Calm     95 % 0 mm
09:26 -18.1 °C -18.4 °C 34097 hPa Calm     95 % 0 mm
09:27 -18.1 °C -18.4 °C 34097 hPa Calm     95 % 0 mm
09:28 -18.1 °C -18.4 °C 34097 hPa Calm     95 % 0 mm
09:31 -18.1 °C -18.4 °C 34097 hPa Calm     95 % 0 mm
09:36 -18.1 °C -18.4 °C 34097 hPa Calm     95 % 0 mm
09:40 -18 °C -18.4 °C 34097 hPa Calm     95 % 0 mm
09:45 -17.9 °C -18.2 °C 34097 hPa Calm     96 % 0 mm
09:48 -17.9 °C -18.2 °C 34097 hPa Calm     96 % 0 mm
09:53 -17.8 °C -18.2 °C 34097 hPa Calm     96 % 0 mm
09:58 -17.8 °C -18.1 °C 34097 hPa Calm     96 % 0 mm
09:59 -17.8 °C -18.1 °C 34097 hPa Calm     96 % 0 mm
10:03 -17.7 °C -18 °C 34097 hPa Calm     96 % 0 mm
10:05 -17.7 °C -18 °C 34097 hPa Calm     96 % 0 mm
10:09 -17.7 °C -18 °C 34097 hPa Calm     96 % 0 mm
10:11 -17.7 °C -18 °C 34097 hPa Calm     96 % 0 mm
10:16 -17.6 °C -17.9 °C 34097 hPa Calm     96 % 0 mm
10:21 -17.5 °C -17.8 °C 34097 hPa SW 0.5 km/h 6.9 km/h 96 % 0 mm
10:26 -17.4 °C -17.7 °C 34097 hPa SSW 3.7 km/h 9.8 km/h 96 % 0 mm
10:27 -17.4 °C -17.7 °C 34097 hPa SSW 4.2 km/h 10.3 km/h 96 % 0 mm
10:32 -17.3 °C -17.7 °C 34097 hPa SSW 5.6 km/h 10.3 km/h 96 % 0 mm
10:35 -17.3 °C -17.6 °C 34097 hPa SSW 3.9 km/h 10.3 km/h 96 % 0 mm
10:40 -17.2 °C -17.6 °C 34097 hPa SSE 0.5 km/h 5.6 km/h 96 % 0 mm
10:44 -17.2 °C -17.4 °C 34097 hPa South 0.5 km/h 6.4 km/h 96 % 0 mm
10:50 -17.1 °C -17.4 °C 34097 hPa SSW 0.8 km/h 6.4 km/h 96 % 0 mm
10:52 -17.1 °C -17.4 °C 34097 hPa SSW 0.8 km/h 6.4 km/h 96 % 0 mm
10:56 -17.1 °C -17.4 °C 34097 hPa Calm     96 % 0 mm
10:59 -17 °C -17.3 °C 34097 hPa Calm     96 % 0 mm
11:02 -16.9 °C -17.3 °C 34097 hPa Calm     96 % 0 mm
11:05 -16.9 °C -17.2 °C 34097 hPa Calm     97 % 0 mm
11:09 -16.9 °C -17.1 °C 34097 hPa Calm     97 % 0 mm
11:10 -16.9 °C -17.1 °C 34097 hPa Calm     97 % 0 mm
11:15 -16.8 °C -17.1 °C 34097 hPa Calm     97 % 0 mm
11:16 -16.8 °C -17.1 °C 34097 hPa Calm     97 % 0 mm
11:21 -16.8 °C -17 °C 34097 hPa Calm     97 % 0 mm
11:27 -16.7 °C -16.9 °C 34097 hPa Calm     97 % 0 mm
11:28 -16.7 °C -16.9 °C 34097 hPa Calm     97 % 0 mm
11:33 -16.7 °C -17 °C 34097 hPa Calm     96 % 7.62 mm
11:37 -16.7 °C -17 °C 34097 hPa Calm     96 % 7.62 mm
11:41 -16.6 °C -16.9 °C 34097 hPa Calm     96 % 7.62 mm
11:44 -16.6 °C -16.9 °C 34130.9 hPa Calm     96 % 7.62 mm
11:46 -16.6 °C -16.8 °C 34130.9 hPa Calm     97 % 7.62 mm
11:47 -16.6 °C -16.8 °C 34130.9 hPa Calm     97 % 7.62 mm
11:52 -16.5 °C -16.7 °C 34130.9 hPa Calm     97 % 7.62 mm
11:54 -16.4 °C -16.7 °C 34130.9 hPa Calm     97 % 7.62 mm
11:59 -16.4 °C -16.6 °C 34097 hPa Calm   5.1 km/h 97 % 7.62 mm
12:04 -16.3 °C -16.6 °C 34097 hPa SSW 2.6 km/h 8.9 km/h 97 % 7.62 mm
12:07 -16.3 °C -16.5 °C 34097 hPa SSW 3.9 km/h 8.9 km/h 97 % 7.62 mm
12:11 -16.2 °C -16.4 °C 34097 hPa SSW 5 km/h 8 km/h 97 % 7.62 mm
12:14 -16.2 °C -16.4 °C 34063.2 hPa South 5.1 km/h 11.1 km/h 97 % 7.62 mm
12:19 -16.2 °C -16.4 °C 34063.2 hPa SSE 6 km/h 11.1 km/h 97 % 7.62 mm
12:20 -16.2 °C -16.4 °C 34063.2 hPa SSE 6 km/h 11.1 km/h 97 % 7.62 mm
12:25 -16.1 °C -16.3 °C 34063.2 hPa SSE 6.8 km/h 10.3 km/h 97 % 7.62 mm
12:26 -16.1 °C -16.3 °C 34063.2 hPa SE 6.4 km/h 9.8 km/h 97 % 7.62 mm
12:29 -16.1 °C -16.3 °C 34063.2 hPa SE 6 km/h 9.8 km/h 97 % 0 mm
12:36 -15.9 °C -16.2 °C 34063.2 hPa SE 5.1 km/h 9.3 km/h 97 % 0 mm
12:41 -15.9 °C -16.2 °C 34063.2 hPa SSE 5.1 km/h 9.3 km/h 97 % 0 mm
12:43 -15.8 °C -16.1 °C 34063.2 hPa SSE 5.1 km/h 9.3 km/h 97 % 0 mm
12:48 -15.8 °C -16 °C 34063.2 hPa SSE 3.1 km/h 8 km/h 97 % 0 mm
12:49 -15.8 °C -16 °C 34063.2 hPa SSE 2.3 km/h 6.9 km/h 97 % 0 mm
12:54 -15.7 °C -15.9 °C 34063.2 hPa SE 1.6 km/h 6.9 km/h 97 % 0 mm
12:57 -15.7 °C -15.9 °C 34029.3 hPa SE 2.1 km/h 6.9 km/h 97 % 0 mm
13:02 -15.7 °C -15.9 °C 34029.3 hPa SE 2.3 km/h 6.9 km/h 97 % 0 mm
13:05 -15.7 °C -15.9 °C 34029.3 hPa SE 3.1 km/h 8 km/h 97 % 0 mm
13:10 -15.7 °C -15.9 °C 34029.3 hPa SE 4.2 km/h 8.9 km/h 97 % 0 mm
13:11 -15.7 °C -15.9 °C 34029.3 hPa ESE 3.9 km/h 8.9 km/h 97 % 0 mm
13:16 -15.6 °C -15.9 °C 34029.3 hPa SE 1.8 km/h 8.9 km/h 97 % 0 mm
13:22 -15.6 °C -15.8 °C 34029.3 hPa SSE 0.8 km/h 5.1 km/h 97 % 0 mm
13:27 -15.5 °C -15.7 °C 34029.3 hPa SSE 2.1 km/h 6.4 km/h 97 % 0 mm
13:31 -15.5 °C -15.7 °C 34029.3 hPa SE 3.9 km/h 7.6 km/h 97 % 0 mm
13:36 -15.4 °C -15.7 °C 34029.3 hPa SE 4.2 km/h 7.6 km/h 97 % 0 mm
13:37 -15.4 °C -15.7 °C 34029.3 hPa SE 4.3 km/h 7.6 km/h 97 % 0 mm
13:42 -15.5 °C -15.7 °C 34029.3 hPa ESE 3.9 km/h 6.9 km/h 97 % 0 mm
13:43 -15.5 °C -15.7 °C 33992.1 hPa SE 3.9 km/h 6.9 km/h 97 % 0 mm
13:45 -15.5 °C -15.7 °C 33992.1 hPa SE 4.3 km/h 6.9 km/h 97 % 0 mm
13:48 -15.4 °C -15.7 °C 33992.1 hPa SE 2.9 km/h 6.9 km/h 97 % 0 mm
13:50 -15.4 °C -15.7 °C 33992.1 hPa SE 2.3 km/h 6.9 km/h 97 % 0 mm
13:52 -15.4 °C -15.7 °C 33992.1 hPa SE 1.8 km/h 6.9 km/h 97 % 0 mm
13:57 -15.4 °C -15.6 °C 33992.1 hPa Calm     97 % 0 mm
13:58 -15.4 °C -15.6 °C 33992.1 hPa Calm     97 % 0 mm
13:59 -15.4 °C -15.6 °C 33992.1 hPa Calm     97 % 0 mm
14:09 -15.4 °C -15.6 °C 33992.1 hPa Calm     97 % 0 mm
14:11 -15.4 °C -15.6 °C 33992.1 hPa Calm     97 % 0 mm
14:16 -15.3 °C -15.6 °C 34029.3 hPa Calm     97 % 0 mm
14:21 -15.3 °C -15.6 °C 34029.3 hPa Calm     97 % 0 mm
14:25 -15.3 °C -15.6 °C 34029.3 hPa Calm     97 % 0 mm
14:30 -15.3 °C -15.5 °C 34029.3 hPa Calm     97 % 0 mm
14:32 -15.3 °C -15.5 °C 34029.3 hPa Calm     97 % 0 mm
14:33 -15.3 °C -15.5 °C 34029.3 hPa Calm     97 % 0 mm
14:38 -15.2 °C -15.4 °C 34029.3 hPa Calm     97 % 0 mm
14:43 -15.2 °C -15.4 °C 33992.1 hPa Calm     97 % 0 mm
14:45 -15.2 °C -15.4 °C 33992.1 hPa Calm     97 % 0 mm
14:50 -15.2 °C -15.4 °C 33992.1 hPa Calm     97 % 0 mm
14:52 -15.2 °C -15.4 °C 33992.1 hPa Calm     97 % 0 mm
14:57 -15.2 °C -15.4 °C 33992.1 hPa Calm     97 % 0 mm
14:59 -15.2 °C -15.4 °C 34029.3 hPa Calm     97 % 0 mm
15:05 -15.2 °C -15.4 °C 34029.3 hPa Calm     97 % 0 mm
15:06 -15.1 °C -15.3 °C 34029.3 hPa Calm     97 % 0 mm
15:11 -15.1 °C -15.3 °C 34029.3 hPa Calm     97 % 0 mm
15:12 -15.1 °C -15.3 °C 34029.3 hPa Calm     97 % 0 mm
15:18 -15.1 °C -15.3 °C 34029.3 hPa Calm     97 % 0 mm
15:21 -15.1 °C -15.3 °C 34029.3 hPa Calm     97 % 0 mm
15:24 -15.1 °C -15.3 °C 34029.3 hPa Calm     97 % 0 mm
15:25 -15.1 °C -15.3 °C 34029.3 hPa Calm     97 % 0 mm
15:30 -15.1 °C -15.3 °C 34029.3 hPa Calm     97 % 0 mm
15:35 -15.1 °C -15.3 °C 34029.3 hPa Calm     97 % 0 mm
15:40 -15.1 °C -15.3 °C 34029.3 hPa Calm     97 % 0 mm
15:41 -15.1 °C -15.3 °C 34029.3 hPa Calm     97 % 0 mm
15:46 -15.1 °C -15.3 °C 34029.3 hPa Calm     97 % 0 mm
15:49 -15.2 °C -15.4 °C 34029.3 hPa Calm     97 % 0 mm
15:50 -15.2 °C -15.4 °C 34029.3 hPa Calm     97 % 0 mm
15:55 -15.2 °C -15.4 °C 34029.3 hPa Calm     97 % 0 mm
16:00 -15.2 °C -15.4 °C 34029.3 hPa Calm     97 % 0 mm
16:01 -15.2 °C -15.4 °C 34029.3 hPa Calm     97 % 0 mm
16:03 -15.2 °C -15.4 °C 34029.3 hPa Calm     97 % 0 mm
16:08 -15.2 °C -15.4 °C 34029.3 hPa Calm     97 % 0 mm
16:13 -15.2 °C -15.4 °C 34029.3 hPa Calm     97 % 0 mm
16:17 -15.3 °C -15.5 °C 34029.3 hPa Calm     97 % 0 mm
16:22 -15.3 °C -15.5 °C 34029.3 hPa Calm     97 % 0 mm
16:24 -15.3 °C -15.5 °C 34029.3 hPa Calm     97 % 0 mm
16:29 -15.3 °C -15.6 °C 34029.3 hPa Calm     97 % 0 mm
16:34 -15.3 °C -15.6 °C 34029.3 hPa Calm     97 % 0 mm
16:39 -15.4 °C -15.6 °C 34029.3 hPa Calm     97 % 0 mm
16:44 -15.4 °C -15.7 °C 34029.3 hPa Calm     97 % 0 mm
16:45 -15.4 °C -15.7 °C 34029.3 hPa Calm     97 % 0 mm
16:49 -15.5 °C -15.7 °C 34029.3 hPa Calm     97 % 0 mm
16:52 -15.5 °C -15.7 °C 34029.3 hPa Calm     97 % 0 mm
16:57 -15.6 °C -15.8 °C 34029.3 hPa SW 1.6 km/h 6.4 km/h 97 % 0 mm
17:02 -15.6 °C -15.9 °C 33992.1 hPa SW 1.8 km/h 6.4 km/h 97 % 0 mm
17:04 -15.6 °C -15.9 °C 33992.1 hPa SW 1.8 km/h 6.4 km/h 97 % 0 mm
17:09 -15.7 °C -15.9 °C 33992.1 hPa Calm   3.4 km/h 97 % 0 mm
17:12 -15.7 °C -15.9 °C 33992.1 hPa Calm     97 % 0 mm
17:17 -15.7 °C -15.9 °C 33992.1 hPa Calm     97 % 0 mm
17:20 -15.7 °C -15.9 °C 33992.1 hPa Calm     97 % 0 mm
17:25 -15.7 °C -15.9 °C 33992.1 hPa Calm     97 % 0 mm
17:27 -15.8 °C -16 °C 33992.1 hPa Calm     97 % 0 mm
17:32 -15.8 °C -16 °C 34029.3 hPa Calm     97 % 0 mm
17:37 -15.8 °C -16 °C 34029.3 hPa Calm     97 % 0 mm
17:39 -15.8 °C -16.1 °C 34029.3 hPa Calm     97 % 0 mm
17:41 -15.8 °C -16.1 °C 34029.3 hPa Calm     97 % 0 mm
17:44 -15.9 °C -16.2 °C 34029.3 hPa Calm     97 % 0 mm
17:45 -15.9 °C -16.2 °C 34029.3 hPa Calm     97 % 0 mm
17:50 -15.9 °C -16.2 °C 34029.3 hPa Calm     97 % 0 mm
17:52 -15.9 °C -16.2 °C 34029.3 hPa Calm     97 % 0 mm
17:53 -15.9 °C -16.2 °C 34029.3 hPa Calm     97 % 0 mm
17:58 -15.9 °C -16.2 °C 33992.1 hPa SW 0.3 km/h 5.1 km/h 97 % 0 mm
17:59 -15.9 °C -16.2 °C 33992.1 hPa SW 0.3 km/h 5.1 km/h 97 % 0 mm
18:00 -15.9 °C -16.2 °C 33992.1 hPa SW 0.3 km/h 5.1 km/h 97 % 0 mm
18:05 -15.9 °C -16.2 °C 33992.1 hPa Calm     97 % 0 mm
18:10 -16 °C -16.2 °C 33992.1 hPa Calm     97 % 0 mm
18:14 -16 °C -16.2 °C 33992.1 hPa Calm     97 % 0 mm
18:15 -16 °C -16.2 °C 33992.1 hPa Calm     97 % 0 mm
18:20 -16.1 °C -16.3 °C 33992.1 hPa Calm     97 % 0 mm
18:21 -16.1 °C -16.3 °C 33992.1 hPa Calm     97 % 0 mm
18:22 -16.1 °C -16.4 °C 33992.1 hPa Calm     96 % 0 mm
18:33 -16.1 °C -16.4 °C 33992.1 hPa Calm     96 % 0 mm
18:34 -16.1 °C -16.4 °C 33992.1 hPa Calm     96 % 0 mm
18:35 -16.1 °C -16.4 °C 33992.1 hPa Calm     96 % 0 mm
18:39 -16.1 °C -16.4 °C 33992.1 hPa West 0.3 km/h 5.6 km/h 96 % 0 mm
18:41 -16.1 °C -16.4 °C 33992.1 hPa West 0.3 km/h 5.6 km/h 96 % 0 mm
18:46 -16.2 °C -16.4 °C 33992.1 hPa Calm     97 % 0 mm
18:51 -16.2 °C -16.4 °C 33992.1 hPa Calm     97 % 0 mm
18:52 -16.2 °C -16.4 °C 33992.1 hPa Calm     97 % 0 mm
18:53 -16.2 °C -16.4 °C 33992.1 hPa Calm     97 % 0 mm
18:58 -16.2 °C -16.4 °C 33992.1 hPa Calm     97 % 0 mm
19:03 -16.3 °C -16.5 °C 33992.1 hPa Calm     97 % 0 mm
19:08 -16.3 °C -16.5 °C 33992.1 hPa Calm     97 % 0 mm
19:14 -16.4 °C -16.6 °C 33992.1 hPa Calm     97 % 0 mm
19:16 -16.4 °C -16.6 °C 33992.1 hPa Calm     97 % 0 mm
19:21 -16.4 °C -16.7 °C 33992.1 hPa Calm     97 % 0 mm
19:23 -16.5 °C -16.7 °C 33992.1 hPa Calm     97 % 0 mm
19:28 -16.5 °C -16.7 °C 33992.1 hPa Calm     97 % 0 mm
19:32 -16.6 °C -16.9 °C 33992.1 hPa Calm   4.2 km/h 96 % 0 mm
19:37 -16.6 °C -16.9 °C 33992.1 hPa Calm   4.2 km/h 96 % 0 mm
19:39 -16.6 °C -16.9 °C 33992.1 hPa Calm   4.2 km/h 96 % 0 mm
19:44 -16.7 °C -17 °C 33992.1 hPa Calm     96 % 0 mm
19:45 -16.7 °C -17 °C 33992.1 hPa Calm     96 % 0 mm
19:50 -16.7 °C -16.9 °C 33992.1 hPa Calm     97 % 0 mm
19:51 -16.7 °C -16.9 °C 33992.1 hPa Calm     97 % 0 mm
19:52 -16.7 °C -16.9 °C 33992.1 hPa Calm     97 % 0 mm
19:57 -16.7 °C -16.9 °C 33992.1 hPa WNW 0.3 km/h 5.1 km/h 97 % 0 mm
20:02 -16.7 °C -16.9 °C 33992.1 hPa WNW 0.3 km/h 5.1 km/h 97 % 0 mm
20:07 -16.7 °C -16.9 °C 33992.1 hPa Calm     97 % 0 mm
20:10 -16.7 °C -16.9 °C 33992.1 hPa Calm     97 % 0 mm
20:15 -16.7 °C -16.9 °C 33992.1 hPa Calm     97 % 0 mm
20:18 -16.7 °C -16.9 °C 33992.1 hPa Calm     97 % 0 mm
20:19 -16.7 °C -16.9 °C 33992.1 hPa Calm     97 % 0 mm
20:23 -16.7 °C -17 °C 33992.1 hPa Calm     96 % 0 mm
20:28 -16.7 °C -17 °C 33992.1 hPa Calm     96 % 0 mm
20:29 -16.7 °C -17 °C 33992.1 hPa Calm     96 % 0 mm
20:33 -16.7 °C -17 °C 33992.1 hPa Calm     96 % 0 mm
20:34 -16.7 °C -17 °C 33992.1 hPa Calm     96 % 0 mm
20:35 -16.7 °C -16.9 °C 33992.1 hPa Calm     97 % 0 mm
20:40 -16.7 °C -16.9 °C 33992.1 hPa Calm     97 % 0 mm
20:41 -16.7 °C -16.9 °C 33992.1 hPa Calm     97 % 0 mm
20:47 -16.7 °C -16.9 °C 33992.1 hPa Calm     97 % 0 mm
20:49 -16.7 °C -16.9 °C 33992.1 hPa Calm     97 % 0 mm
20:54 -16.6 °C -16.8 °C 33992.1 hPa Calm     97 % 0 mm
20:59 -16.6 °C -16.8 °C 33958.2 hPa Calm     97 % 0 mm
21:01 -16.6 °C -16.8 °C 33958.2 hPa Calm     97 % 0 mm
21:06 -16.6 °C -16.8 °C 33958.2 hPa Calm     97 % 0 mm
21:11 -16.6 °C -16.8 °C 33958.2 hPa Calm     97 % 0 mm
21:14 -16.6 °C -16.8 °C 33958.2 hPa Calm     97 % 0 mm
21:16 -16.6 °C -16.8 °C 33958.2 hPa Calm     97 % 0 mm
21:17 -16.6 °C -16.8 °C 33958.2 hPa Calm     97 % 0 mm
21:19 -16.6 °C -16.8 °C 33958.2 hPa Calm     97 % 0 mm
21:24 -16.7 °C -16.9 °C 33958.2 hPa Calm     97 % 0 mm
21:26 -16.7 °C -16.9 °C 33958.2 hPa Calm     97 % 0 mm
21:27 -16.7 °C -16.9 °C 33958.2 hPa Calm     97 % 0 mm
21:32 -16.7 °C -16.9 °C 33958.2 hPa Calm     97 % 0 mm
21:34 -16.7 °C -16.9 °C 33958.2 hPa Calm     97 % 0 mm
21:38 -16.7 °C -16.9 °C 33958.2 hPa Calm     97 % 0 mm
21:43 -16.8 °C -17.1 °C 33958.2 hPa Calm     97 % 0 mm
21:47 -16.8 °C -17.1 °C 33958.2 hPa Calm     97 % 0 mm
21:52 -16.9 °C -17.1 °C 33958.2 hPa Calm     97 % 0 mm
21:53 -16.9 °C -17.1 °C 33958.2 hPa Calm     97 % 0 mm
21:55 -16.9 °C -17.1 °C 33958.2 hPa Calm     97 % 0 mm
22:01 -16.9 °C -17.1 °C 33958.2 hPa Calm     97 % 0 mm
22:08 -17 °C -17.2 °C 33958.2 hPa Calm     97 % 0 mm
22:14 -17 °C -17.2 °C 33958.2 hPa Calm     97 % 0 mm
22:17 -17 °C -17.2 °C 33958.2 hPa Calm     97 % 0 mm
22:19 -17 °C -17.2 °C 33958.2 hPa Calm     97 % 0 mm
22:34 -17.1 °C -17.3 °C 33958.2 hPa North 0.3 km/h 4.2 km/h 97 % 0 mm
22:38 -17.1 °C -17.3 °C 33958.2 hPa North 0.3 km/h 4.2 km/h 97 % 0 mm
22:45 -17.1 °C -17.3 °C 33924.3 hPa Calm     97 % 0 mm
22:46 -17.1 °C -17.3 °C 33924.3 hPa Calm     97 % 0 mm
22:47 -17.1 °C -17.3 °C 33924.3 hPa Calm     97 % 0 mm
22:48 -17.1 °C -17.3 °C 33924.3 hPa Calm     97 % 0 mm
22:49 -17.1 °C -17.3 °C 33924.3 hPa Calm     97 % 0 mm
22:50 -17.1 °C -17.3 °C 33924.3 hPa Calm     97 % 0 mm
22:51 -17.1 °C -17.3 °C 33924.3 hPa Calm     97 % 0 mm
22:55 -17.1 °C -17.3 °C 33924.3 hPa Calm     97 % 0 mm
22:57 -17.1 °C -17.3 °C 33924.3 hPa Calm     97 % 0 mm
23:02 -17.1 °C -17.3 °C 33958.2 hPa Calm     97 % 0 mm
23:04 -17.1 °C -17.3 °C 33958.2 hPa Calm     97 % 0 mm
23:05 -17 °C -17.2 °C 33958.2 hPa Calm     97 % 0 mm
23:09 -17 °C -17.2 °C 33958.2 hPa Calm     97 % 0 mm
23:15 -17 °C -17.2 °C 33924.3 hPa Calm     97 % 0 mm
23:16 -17 °C -17.2 °C 33924.3 hPa Calm     97 % 0 mm
23:23 -16.9 °C -17.2 °C 33924.3 hPa Calm     97 % 0 mm
23:28 -16.9 °C -17.2 °C 33924.3 hPa Calm     97 % 0 mm
23:31 -16.9 °C -17.2 °C 33924.3 hPa Calm     97 % 0 mm
23:36 -16.9 °C -17.2 °C 33924.3 hPa Calm     97 % 0 mm
23:38 -16.9 °C -17.2 °C 33924.3 hPa Calm     97 % 0 mm
23:42 -16.9 °C -17.2 °C 33924.3 hPa Calm     97 % 0 mm
23:45 -16.9 °C -17.2 °C 33924.3 hPa Calm     97 % 0 mm
23:50 -16.9 °C -17.1 °C 33924.3 hPa Calm     97 % 0 mm
23:51 -16.9 °C -17.1 °C 33924.3 hPa Calm     97 % 0 mm
23:52 -16.9 °C -17.1 °C 33924.3 hPa Calm     97 % 0 mm
23:57 -16.9 °C -17.1 °C 33924.3 hPa Calm     97 % 0 mm
Vremenska postaja Senovo
Podatki zbrani iz Weather Underground - 3.5 mb

Script developed by  Jim McMurry - jmcmurry@mwt.net Adapted for the template by  Wim van der Kuil - Leuven-Template.eu

Vremenski podatki so objavljeni na:

European Weather Network

WeatherCloud

Weather Underground

AWEKAS

HAMweather, WeatherForYou, PWS Weather

MapView

Geostik

Slovenia weather network

Oprema, ki se uporablja:

Vremenski program
Cumulus

Vremenski server
Asus

Cumulus

Asus